Weather in Udachny

Russia / Sakha (Yakutia) Republic     66°24′25″N   112°18′22″E
temp.,
°C
wind,
m/s
gust,
m/s
humid.,
%
clouds,
%
prec.,
mm/h
press.,
hPa
HPBL,
m
8 march, mon
mon800:00−17ssw1197100 0.1 100020
03:00−19wnw0110099 0.1 99920
06:00−17nw119899 0.1 99920
09:00−18n1197100 0.2 100020
12:00−15nw2391100 0.1 1001266
15:00−14nw4588100 0.2 1002430
18:00−16nw4693100 0.1 1005187
21:00−19wnw339698 0.1 100734
9 march, tue
tue900:00−24wsw1110094 0.0 100820
03:00−23ssw2210097 0.1 100820
06:00−25s1210085 0.0 100820
09:00−24sse239477 0.0 100620
12:00−18sse3492100 0.0 1002167
15:00−15sse5991100 0.0 997338
18:00−13s61194100 0.8 993886
21:00−13sse41095100 1.8 990357
10 march, wed
wed1000:00−15s3495100 0.2 98737
03:00−16sw229798 0.2 98820
06:00−16wnw5796100 0.1 989111
09:00−17wnw81394100 0.2 992293
12:00−20wnw91393100 0.0 996426
15:00−19wnw91291100 0.1 999685
18:00−20wnw91292100 0.1 1003548
21:00−22nw71293100 0.2 1006308
11 march, thu
thu1100:00−25wnw589599 0.0 100893
03:00−28w2210088 0.1 100920
06:00−29sw339679 0.0 101020
09:00−29sw348751 0.0 101030
12:00−22wsw813780 0.0 1009441
15:00−18wsw811770 0.0 1008604
18:00−18sw598557 0.0 1006246
21:00−19sw349378 0.0 100447
12 march, fri
fri1200:00−21sw349398 0.0 100222
03:00−19sw239799 0.1 100023
06:00−18sw1297100 0.1 99920
09:00−19nw1298100 0.2 99920
12:00−18nnw349299 0.1 999275
15:00−19nw578897 0.1 1000454
18:00−22wnw458818 0.0 100367
21:00−28w239011 0.0 100519